Time,TemperatureF,DewpointF,PressureIn,WindDirection,WindDirectionDegrees,WindSpeedMPH,WindSpeedGustMPH,Humidity,HourlyPrecipIn,Conditions,Clouds,dailyrainin,SoftwareType,DateUTC
2017-08-24 00:04:00,57.8,54.0,30.11,ESE,113,0.0,-999.0,88,0.00,,,0.00,,2017-08-24 05:04:00,
2017-08-24 00:09:00,57.8,54.0,30.11,South,180,0.0,-999.0,90,0.00,,,0.00,,2017-08-24 05:09:00,
2017-08-24 00:16:00,57.7,54.0,30.10,ESE,113,0.0,-999.0,90,0.00,,,0.00,,2017-08-24 05:16:00,
2017-08-24 00:21:00,57.5,54.0,30.11,NE,45,1.0,-999.0,90,0.00,,,0.00,,2017-08-24 05:21:00,
2017-08-24 00:27:00,57.5,54.0,30.09,North,0,0.0,-999.0,91,0.00,,,0.00,,2017-08-24 05:27:00,
2017-08-24 00:33:00,57.5,54.0,30.10,SE,135,0.0,-999.0,91,0.00,,,0.00,,2017-08-24 05:33:00,
2017-08-24 00:39:00,57.3,54.0,30.10,SSW,203,0.0,-999.0,91,0.00,,,0.00,,2017-08-24 05:39:00,
2017-08-24 00:44:00,57.3,54.0,30.10,SSW,203,0.0,-999.0,91,0.00,,,0.00,,2017-08-24 05:44:00,
2017-08-24 00:50:00,57.3,54.0,30.13,West,270,0.0,-999.0,91,0.00,,,0.00,,2017-08-24 05:50:00,
2017-08-24 00:59:00,57.2,54.0,30.12,NNE,23,1.0,-999.0,91,0.00,,,0.00,,2017-08-24 05:59:00,
2017-08-24 01:05:00,57.2,54.0,30.14,NW,315,2.0,-999.0,91,0.00,,,0.00,,2017-08-24 06:05:00,
2017-08-24 01:11:00,56.9,54.0,30.14,NNW,338,4.0,-999.0,91,0.00,,,0.00,,2017-08-24 06:11:00,
2017-08-24 01:16:00,56.9,54.0,30.13,NE,45,5.0,-999.0,93,0.00,,,0.00,,2017-08-24 06:16:00,
2017-08-24 01:22:00,56.9,54.0,30.15,ENE,68,2.0,-999.0,93,0.00,,,0.00,,2017-08-24 06:22:00,
2017-08-24 01:27:00,56.9,54.0,30.13,West,270,2.0,-999.0,93,0.00,,,0.00,,2017-08-24 06:27:00,
2017-08-24 01:33:00,56.9,54.0,30.13,WNW,293,2.0,-999.0,93,0.00,,,0.00,,2017-08-24 06:33:00,
2017-08-24 01:39:00,56.7,54.0,30.14,ENE,68,0.0,-999.0,93,0.00,,,0.00,,2017-08-24 06:39:00,
2017-08-24 01:45:00,56.7,54.0,30.13,NE,45,1.0,-999.0,93,0.00,,,0.00,,2017-08-24 06:45:00,
2017-08-24 01:51:00,56.7,54.0,30.12,West,270,1.0,-999.0,93,0.00,,,0.00,,2017-08-24 06:51:00,
2017-08-24 01:56:00,56.7,54.0,30.13,South,180,0.0,-999.0,93,0.00,,,0.00,,2017-08-24 06:56:00,
2017-08-24 02:02:00,56.7,54.0,30.12,ESE,113,0.0,-999.0,93,0.00,,,0.00,,2017-08-24 07:02:00,
2017-08-24 02:08:00,56.7,54.0,30.11,ENE,68,0.0,-999.0,93,0.00,,,0.00,,2017-08-24 07:08:00,
2017-08-24 02:13:00,56.7,54.0,30.12,North,0,0.0,-999.0,93,0.00,,,0.00,,2017-08-24 07:13:00,
2017-08-24 02:19:00,56.5,54.0,30.12,ESE,113,0.0,-999.0,93,0.00,,,0.00,,2017-08-24 07:19:00,
2017-08-24 02:24:00,56.5,54.0,30.12,ESE,113,0.0,-999.0,93,0.00,,,0.00,,2017-08-24 07:24:00,
2017-08-24 02:30:00,56.3,54.0,30.10,ESE,113,0.0,-999.0,93,0.00,,,0.00,,2017-08-24 07:30:00,
2017-08-24 02:36:00,56.3,54.0,30.13,ESE,113,0.0,-999.0,93,0.00,,,0.00,,2017-08-24 07:36:00,
2017-08-24 02:41:00,56.3,54.0,30.12,NW,315,0.0,-999.0,93,0.00,,,0.00,,2017-08-24 07:41:00,
2017-08-24 02:47:00,56.3,54.0,30.11,West,270,0.0,-999.0,93,0.00,,,0.00,,2017-08-24 07:47:00,
2017-08-24 02:53:00,56.0,54.0,30.13,ESE,113,0.0,-999.0,93,0.00,,,0.00,,2017-08-24 07:53:00,
2017-08-24 02:58:00,56.0,54.0,30.11,ENE,68,0.0,-999.0,93,0.00,,,0.00,,2017-08-24 07:58:00,
2017-08-24 03:04:00,56.0,54.0,30.12,ESE,113,0.0,-999.0,93,0.00,,,0.00,,2017-08-24 08:04:00,
2017-08-24 03:09:00,56.0,54.0,30.11,ENE,68,2.0,-999.0,93,0.00,,,0.00,,2017-08-24 08:09:00,
2017-08-24 03:15:00,55.9,54.0,30.11,North,0,0.0,-999.0,93,0.00,,,0.00,,2017-08-24 08:15:00,
2017-08-24 03:20:00,55.7,54.0,30.10,NNW,338,0.0,-999.0,93,0.00,,,0.00,,2017-08-24 08:20:00,
2017-08-24 03:26:00,55.5,53.0,30.10,NE,45,0.0,-999.0,93,0.00,,,0.00,,2017-08-24 08:26:00,
2017-08-24 03:31:00,55.1,53.0,30.11,WNW,293,0.0,-999.0,95,0.00,,,0.00,,2017-08-24 08:31:00,
2017-08-24 03:37:00,55.0,53.0,30.10,West,270,0.0,-999.0,95,0.00,,,0.00,,2017-08-24 08:37:00,
2017-08-24 03:42:00,55.0,53.0,30.12,WNW,293,0.0,-999.0,95,0.00,,,0.00,,2017-08-24 08:42:00,
2017-08-24 03:48:00,54.9,53.0,30.10,North,0,0.0,-999.0,95,0.00,,,0.00,,2017-08-24 08:48:00,
2017-08-24 03:54:00,54.7,53.0,30.10,NE,45,0.0,-999.0,95,0.00,,,0.00,,2017-08-24 08:54:00,
2017-08-24 03:59:00,54.7,53.0,30.11,North,0,0.0,-999.0,96,0.00,,,0.00,,2017-08-24 08:59:00,
2017-08-24 04:05:00,54.7,53.0,30.11,WNW,293,0.0,-999.0,96,0.00,,,0.00,,2017-08-24 09:05:00,
2017-08-24 04:10:00,54.7,53.0,30.13,ENE,68,0.0,-999.0,96,0.00,,,0.00,,2017-08-24 09:10:00,
2017-08-24 04:16:00,54.4,53.0,30.12,South,180,0.0,-999.0,96,0.00,,,0.00,,2017-08-24 09:16:00,
2017-08-24 04:22:00,54.0,52.0,30.12,NNE,23,0.0,-999.0,96,0.00,,,0.00,,2017-08-24 09:22:00,
2017-08-24 04:28:00,54.0,52.0,30.11,NW,315,0.0,-999.0,96,0.00,,,0.00,,2017-08-24 09:28:00,
2017-08-24 04:33:00,54.0,52.0,30.12,West,270,0.0,-999.0,96,0.00,,,0.00,,2017-08-24 09:33:00,
2017-08-24 04:39:00,54.0,52.0,30.11,SSW,203,0.0,-999.0,96,0.00,,,0.00,,2017-08-24 09:39:00,
2017-08-24 04:44:00,53.8,52.0,30.10,South,180,0.0,-999.0,96,0.00,,,0.00,,2017-08-24 09:44:00,
2017-08-24 04:50:00,53.5,52.0,30.11,East,90,0.0,-999.0,96,0.00,,,0.00,,2017-08-24 09:50:00,
2017-08-24 04:55:00,53.4,52.0,30.12,East,90,0.0,-999.0,96,0.00,,,0.00,,2017-08-24 09:55:00,
2017-08-24 05:01:00,53.2,52.0,30.12,ESE,113,0.0,-999.0,96,0.00,,,0.00,,2017-08-24 10:01:00,
2017-08-24 05:07:00,52.6,51.0,30.11,North,0,0.0,-999.0,96,0.00,,,0.00,,2017-08-24 10:07:00,
2017-08-24 05:13:00,53.2,52.0,30.13,NE,45,0.0,-999.0,96,0.00,,,0.00,,2017-08-24 10:13:00,
2017-08-24 05:18:00,53.2,52.0,30.12,ENE,68,0.0,-999.0,96,0.00,,,0.00,,2017-08-24 10:18:00,
2017-08-24 05:23:00,53.1,51.0,30.12,ESE,113,0.0,-999.0,96,0.00,,,0.00,,2017-08-24 10:23:00,
2017-08-24 05:29:00,53.2,52.0,30.13,NNW,338,1.0,-999.0,96,0.00,,,0.00,,2017-08-24 10:29:00,
2017-08-24 05:34:00,53.4,52.0,30.12,West,270,0.0,-999.0,96,0.00,,,0.00,,2017-08-24 10:34:00,
2017-08-24 05:40:00,53.2,52.0,30.12,SSW,203,0.0,-999.0,96,0.00,,,0.00,,2017-08-24 10:40:00,
2017-08-24 05:45:00,53.2,52.0,30.12,SSE,158,0.0,-999.0,96,0.00,,,0.00,,2017-08-24 10:45:00,
2017-08-24 05:51:00,53.1,51.0,30.15,South,180,0.0,-999.0,96,0.00,,,0.00,,2017-08-24 10:51:00,
2017-08-24 05:56:00,52.8,51.0,30.12,SE,135,0.0,-999.0,96,0.00,,,0.00,,2017-08-24 10:56:00,
2017-08-24 06:02:00,52.8,51.0,30.12,ENE,68,0.0,-999.0,96,0.00,,,0.00,,2017-08-24 11:02:00,
2017-08-24 06:07:00,53.1,51.0,30.15,ENE,68,0.0,-999.0,96,0.00,,,0.00,,2017-08-24 11:07:00,
2017-08-24 06:14:00,52.8,51.0,30.13,East,90,0.0,-999.0,96,0.00,,,0.00,,2017-08-24 11:14:00,
2017-08-24 06:19:00,52.5,51.0,30.13,ESE,113,0.0,-999.0,96,0.00,,,0.00,,2017-08-24 11:19:00,
2017-08-24 06:25:00,52.3,51.0,30.13,SW,225,0.0,-999.0,96,0.00,,,0.00,,2017-08-24 11:25:00,
2017-08-24 06:30:00,51.9,50.0,30.14,North,0,0.0,-999.0,96,0.00,,,0.00,,2017-08-24 11:30:00,
2017-08-24 06:36:00,51.9,50.0,30.14,WSW,248,0.0,-999.0,96,0.00,,,0.00,,2017-08-24 11:36:00,
2017-08-24 06:41:00,51.9,50.0,30.13,South,180,0.0,-999.0,96,0.00,,,0.00,,2017-08-24 11:41:00,
2017-08-24 06:47:00,51.8,50.0,30.13,West,270,0.0,-999.0,96,0.00,,,0.00,,2017-08-24 11:47:00,